[[{"header":{"parameterUnit":"m.s-1","parameterCategory":1,"la1":30.2991,"la2":30.254,"lo1":-89.0895,"lo2":-89.0444,"dy":0.0017,"dx":0.0017,"nx":28,"ny":28,"refTime":"2024-12-24T09:00:00:Z","depth":0,"parameterNumber":2,"parameterNumberName":"U-component_of_WINDS"},"data":[0,0,0,0,0,0,0,0,0,0,0,0,0,0,0,0,0,0,0,0,0,0,0,0,0,0,0,0,0,0,0,0,0,0,0,0,0,0,0,0,0,0,0,0,0,0,0,0,0,0,0,0,0,0,0,0,0,0,-4.1991,-4.1991,0,-4.1994,-4.1995,-4.1995,-4.1862,-4.1859,-4.1855,-4.1852,-4.1859,-4.1862,-4.1866,0,0,0,0,0,0,0,0,0,0,0,0,0,-4.1875,-4.1878,-4.1991,-4.1991,-4.1991,-4.1994,-4.1995,-4.1995,-4.1863,-4.1858,-4.1854,-4.185,-4.1858,-4.1862,-4.1866,0,0,0,0,0,0,0,0,0,0,0,0,0,-4.1907,-4.1879,-4.1991,-4.1926,-4.192,-4.1994,-4.1995,-4.1995,-4.1864,-4.1858,-4.1853,-4.1848,-4.1856,-4.1862,-4.1867,-4.2005,0,0,-4.1883,-4.1885,0,0,0,0,0,0,0,0,-4.1905,-4.1911,-4.1935,-4.193,-4.1924,-4.1922,-4.1956,-4.1998,-4.1865,-4.1885,-4.1852,-4.1846,-4.1885,-4.1887,-4.19,-4.2005,-4.2006,-4.1883,-4.1886,-4.1889,-4.189,0,0,0,0,0,0,0,-4.1903,-4.191,-4.1992,-4.1936,-4.1929,-4.1898,-4.1896,-4.1963,-4.1915,-4.1883,-4.1873,-4.1875,-4.188,-4.1895,-4.1899,-4.2006,-4.1883,-4.1888,-4.1891,-4.1893,-4.2228,-4.2233,0,0,0,0,0,0,-4.1909,-4.191,-4.1992,-4.1993,-4.1901,-4.1904,-4.1903,-4.1928,-4.1914,-4.1906,-4.188,-4.1869,-4.1888,-4.1893,-4.1899,-4.2061,-4.1888,-4.1893,-4.1896,-4.2222,-4.2229,-4.2235,0,0,0,0,0,0,-4.1907,-4.1918,-4.1992,-4.1948,-4.1955,-4.1912,-4.1942,-4.1931,-4.1945,-4.1911,-4.1902,-4.1903,-4.1884,-4.1891,-4.198,-4.2059,-4.1896,-4.19,-4.2215,-4.2224,-4.2232,-4.2387,0,0,0,0,0,0,-4.1905,-4.1918,-4.1969,-4.1951,-4.1958,-4.2073,-4.1947,-4.1935,-4.1954,-4.194,-4.1931,-4.1924,-4.1881,-4.1973,-4.1985,-4.2064,-4.1905,-4.2208,-4.2219,-4.2229,-4.2375,-4.24,-4.2421,0,0,0,0,0,-4.1901,-4.2013,-4.1972,-4.1983,-4.2021,-4.2077,-4.2082,-4.2029,-4.1961,-4.2013,-4.1991,-4.1924,-4.2049,-4.1983,-4.1996,-4.2077,-4.2203,-4.2216,-4.2228,-4.2364,-4.2395,-4.2421,0,0,0,0,0,0,-4.2043,-4.2009,-4.1964,-4.2073,-4.2079,-4.2055,-4.2118,-4.2063,-4.2089,-4.2075,-4.2009,-4.2008,-4.2108,-4.2101,-4.2029,-4.2211,-4.2114,-4.213,-4.2213,-4.2242,-4.2265,-4.2265,-4.1909,0,0,0,0,0,-4.2087,-4.2134,-4.2102,-4.2202,-4.2207,-4.2163,-4.2185,-4.2144,-4.2148,-4.215,-4.2135,-4.2143,-4.2183,-4.2212,-4.2247,-4.2372,-4.237,-4.2435,-4.2458,-4.2478,-4.2493,-4.2561,-4.2591,-4.2278,-4.2278,-4.2277,0,0,-4.2178,-4.2165,-4.22,-4.223,-4.223,-4.2282,-4.2166,-4.2225,-4.2264,-4.216,-4.2242,-4.2232,-4.2236,-4.2345,-4.2391,-4.2342,-4.2579,-4.2494,-4.251,-4.2515,-4.2578,-4.2607,-4.2634,-4.2286,-4.2285,-4.2283,0,0,-4.2371,-4.2366,-4.2449,-4.2451,-4.2452,-4.2422,-4.2442,-4.2427,-4.2416,-4.2498,-4.2421,-4.2467,-4.2538,-4.2545,-4.2558,-4.2756,-4.2696,-4.2769,-4.2892,-4.296,-4.2984,-4.3006,-4.3079,-4.3105,-4.2784,-4.2785,-4.2785,0,-4.2485,-4.2559,-4.2499,-4.2564,-4.2581,-4.2488,-4.2573,-4.2578,-4.2592,-4.2606,-4.255,-4.2638,-4.2635,-4.2744,-4.2793,-4.2806,-4.2828,-4.2771,-4.2985,-4.3006,-4.3026,-4.3094,-4.3122,-4.2794,-4.2793,-4.2792,-4.2791,0,-4.27,-4.2753,-4.2821,-4.2835,-4.2859,-4.2934,-4.2887,-4.2919,-4.2876,-4.2853,-4.2939,-4.2931,-4.2964,-4.2987,-4.2945,-4.3092,-4.3061,-4.2996,-4.2897,-4.3066,-4.3129,-4.3155,-4.2807,-4.2803,-4.2801,-4.2798,0,0,-4.2983,-4.2964,-4.299,-4.2997,-4.2992,-4.3032,-4.3104,-4.3135,-4.3165,-4.3178,-4.3238,-4.3301,-4.3241,-4.3256,-4.3215,-4.3274,-4.3434,-4.3201,-4.3201,-4.3247,-4.3598,-4.3648,-4.3679,-4.3394,-4.3399,-4.3402,-4.3598,0,-4.3172,-4.3292,-4.3241,-4.3367,-4.3417,-4.333,-4.3392,-4.3397,-4.3378,-4.3418,-4.3397,-4.3443,-4.336,-4.3369,-4.3423,-4.3403,-4.3504,-4.3388,-4.3451,-4.3454,-4.3455,-4.3712,-4.3765,-4.395,-4.3622,-4.3626,-4.3629,0,-4.3409,-4.3431,-4.3563,-4.355,-4.3569,-4.3626,-4.3653,-4.3691,-4.3696,-4.3678,-4.3696,-4.3641,-4.3713,-4.3613,-4.3712,-4.3635,-4.3658,-4.3652,-4.3658,-4.3663,-4.3553,-4.3726,-4.4007,-4.4036,-4.3667,-4.3664,-4.3662,0,-4.3605,-4.3668,-4.3755,-4.3763,-4.375,-4.3793,-4.379,-4.3789,-4.3812,-4.3835,-4.385,-4.3882,-4.39,-4.3926,-4.3883,-4.3814,-4.399,-4.3886,-4.3978,-4.398,-4.402,-4.4019,-4.4311,-4.4033,-4.4032,-4.4032,-4.4031,0,-4.3823,-4.3907,-4.3843,-4.3897,-4.3989,-4.393,-4.4023,-4.4011,-4.4011,-4.4063,-4.3989,-4.4039,-4.3978,-4.4023,-4.399,-4.4078,-4.4087,-4.4075,-4.4066,-4.4083,-4.4085,-4.4098,-4.4085,-4.4039,-4.4037,-4.4036,-4.4035,0,-4.4058,-4.4018,-4.4107,-4.4088,-4.4086,-4.4155,-4.4139,-4.4189,-4.4165,-4.4231,-4.4243,-4.4205,-4.4254,-4.4214,-4.4261,-4.4239,-4.4357,-4.4328,-4.4356,-4.4349,-4.4444,-4.4437,-4.4757,-4.4797,-4.4491,-4.4494,-4.4497,0,-4.42,-4.4263,-4.4251,-4.4279,-4.4281,-4.4328,-4.4351,-4.4296,-4.4323,-4.4334,-4.4384,-4.4426,-4.4458,-4.4541,-4.4519,-4.4556,-4.4528,-4.4638,-4.4534,-4.455,-4.4533,-4.453,-4.4538,-4.466,-4.4664,-4.4667,-4.4669,0,-4.4457,-4.4435,-4.447,-4.4501,-4.453,-4.4551,-4.4567,-4.4595,-4.4538,-4.4573,-4.4622,-4.4647,-4.4696,-4.474,-4.477,-4.4768,-4.4711,-4.4702,-4.4726,-4.4745,-4.4759,-4.4755,-4.4416,-4.4695,-4.4693,-4.4691,-4.4689,-4.4688,-4.4651,-4.4704,-4.4705,-4.4747,-4.4753,-4.477,-4.4816,-4.4798,-4.4837,-4.4872,-4.4837,-4.4898,-4.4903,-4.4936,-4.4942,-4.499,-4.4944,-4.4978,-4.4987,-4.4997,-4.5012,-4.475,-4.4995,-4.4994,-4.4993,-4.4992,-4.4992,0,-4.4907,-4.4903,-4.4943,-4.4967,-4.5002,-4.4943,-4.4957,-4.4991,-4.5044,-4.5053,-4.5086,-4.5144,-4.5186,-4.5168,-4.5206,-4.5248,-4.5223,-4.526,-4.5258,-4.5259,-4.5049,-4.5026,-4.528,-4.528,-4.528,-4.528,-4.528,-4.528,-4.5044,-4.5131,-4.5109,-4.5199,-4.5194,-4.5252,-4.5266,-4.5281,-4.5288,-4.5356,-4.5391,-4.5378,-4.5377,-4.5415,-4.5453,-4.5446,-4.5465,-4.5512,-4.5497,-4.5302,-4.5273,-4.5246,-4.5224,-4.5516,-4.5517,-4.5703,-4.5705,-4.5706]},{"header":{"parameterUnit":"m.s-1","parameterCategory":1,"la1":30.2991,"la2":30.254,"lo1":-89.0895,"lo2":-89.0444,"dy":0.0017,"dx":0.0017,"nx":28,"ny":28,"refTime":"2024-12-24T09:00:00:Z","depth":0,"parameterNumber":3,"parameterNumberName":"V-component_of_WINDS"},"data":[0,0,0,0,0,0,0,0,0,0,0,0,0,0,0,0,0,0,0,0,0,0,0,0,0,0,0,0,0,0,0,0,0,0,0,0,0,0,0,0,0,0,0,0,0,0,0,0,0,0,0,0,0,0,0,0,0,0,-0.1282,-0.1283,0,-0.1319,-0.132,-0.132,-0.1305,-0.1304,-0.1303,-0.1302,-0.1342,-0.1343,-0.1345,0,0,0,0,0,0,0,0,0,0,0,0,0,-0.1199,-0.1201,-0.1282,-0.1283,-0.1283,-0.1319,-0.132,-0.132,-0.1305,-0.1304,-0.1303,-0.1302,-0.1341,-0.1343,-0.1345,0,0,0,0,0,0,0,0,0,0,0,0,0,-0.1236,-0.1201,-0.1282,-0.128,-0.128,-0.1319,-0.132,-0.132,-0.1305,-0.1304,-0.1303,-0.1301,-0.134,-0.1343,-0.1346,-0.1389,0,0,-0.1354,-0.1356,0,0,0,0,0,0,0,0,-0.1234,-0.1239,-0.128,-0.128,-0.128,-0.1306,-0.1305,-0.1343,-0.1306,-0.1296,-0.1302,-0.1301,-0.1331,-0.1334,-0.1344,-0.1391,-0.1393,-0.1355,-0.1356,-0.1357,-0.1358,0,0,0,0,0,0,0,-0.1231,-0.1237,-0.1297,-0.1281,-0.1281,-0.1277,-0.1281,-0.1312,-0.132,-0.1297,-0.1296,-0.13,-0.1331,-0.1342,-0.1345,-0.1394,-0.1355,-0.1357,-0.1359,-0.136,-0.1477,-0.1479,0,0,0,0,0,0,-0.1228,-0.1235,-0.1296,-0.1298,-0.1253,-0.128,-0.1284,-0.1299,-0.132,-0.1322,-0.1301,-0.1299,-0.1338,-0.1342,-0.1346,-0.1399,-0.1357,-0.136,-0.1362,-0.1476,-0.1477,-0.1479,0,0,0,0,0,0,-0.1227,-0.1234,-0.1294,-0.1266,-0.1274,-0.1283,-0.13,-0.1301,-0.1311,-0.1323,-0.1325,-0.1311,-0.1337,-0.1343,-0.1379,-0.14,-0.1361,-0.1364,-0.1474,-0.1476,-0.1478,-0.1504,0,0,0,0,0,0,-0.1224,-0.1234,-0.125,-0.1267,-0.1275,-0.1326,-0.1301,-0.1302,-0.1316,-0.1314,-0.1333,-0.1335,-0.1336,-0.1374,-0.1381,-0.1403,-0.1366,-0.1472,-0.1475,-0.1478,-0.1501,-0.1507,-0.1512,0,0,0,0,0,-0.1222,-0.1257,-0.1251,-0.1259,-0.1296,-0.1327,-0.1332,-0.1333,-0.1318,-0.1335,-0.1342,-0.1334,-0.1396,-0.1378,-0.1386,-0.1409,-0.1471,-0.1474,-0.1477,-0.1499,-0.1506,-0.1511,0,0,0,0,0,0,-0.1244,-0.1259,-0.1253,-0.1295,-0.131,-0.1325,-0.1346,-0.134,-0.136,-0.1357,-0.1357,-0.1361,-0.1399,-0.1407,-0.1387,-0.1452,-0.1431,-0.1436,-0.1445,-0.1452,-0.1457,-0.1455,-0.1368,0,0,0,0,0,-0.1253,-0.1277,-0.1289,-0.1324,-0.1332,-0.1338,-0.1351,-0.135,-0.1366,-0.1372,-0.1382,-0.1398,-0.1421,-0.1437,-0.1458,-0.1502,-0.1506,-0.1521,-0.1526,-0.153,-0.1535,-0.1558,-0.1565,-0.149,-0.149,-0.149,0,0,-0.1274,-0.1285,-0.13,-0.1329,-0.134,-0.1365,-0.1343,-0.137,-0.1388,-0.1376,-0.1411,-0.1419,-0.1436,-0.1476,-0.1494,-0.1484,-0.1556,-0.1534,-0.1538,-0.154,-0.1562,-0.157,-0.1576,-0.1492,-0.1491,-0.1491,0,0,-0.1324,-0.1334,-0.1365,-0.1376,-0.1393,-0.1396,-0.1404,-0.1419,-0.1424,-0.1458,-0.1449,-0.1471,-0.151,-0.1523,-0.1535,-0.1587,-0.158,-0.1594,-0.1621,-0.1644,-0.165,-0.1655,-0.1674,-0.1681,-0.1598,-0.1598,-0.1598,0,-0.1347,-0.1383,-0.1381,-0.1409,-0.1422,-0.141,-0.1441,-0.1452,-0.1476,-0.1485,-0.1473,-0.1522,-0.1533,-0.1576,-0.1588,-0.1598,-0.1606,-0.1593,-0.1649,-0.1654,-0.1659,-0.1678,-0.1685,-0.16,-0.16,-0.16,-0.1599,0,-0.1412,-0.1437,-0.1459,-0.1481,-0.1496,-0.1525,-0.1528,-0.1543,-0.154,-0.1544,-0.1579,-0.1591,-0.1615,-0.1625,-0.1623,-0.1667,-0.166,-0.1649,-0.1628,-0.1668,-0.1685,-0.1692,-0.1602,-0.1602,-0.1601,-0.1601,0,0,-0.1479,-0.1498,-0.1506,-0.1516,-0.1533,-0.1552,-0.158,-0.1603,-0.1616,-0.1632,-0.1656,-0.1688,-0.1677,-0.1691,-0.1689,-0.1709,-0.1749,-0.1695,-0.1695,-0.1705,-0.1799,-0.1809,-0.1817,-0.1744,-0.1745,-0.1746,-0.1798,0,-0.1531,-0.158,-0.1578,-0.1624,-0.1647,-0.1635,-0.1659,-0.1672,-0.1676,-0.1696,-0.1701,-0.1724,-0.1708,-0.1716,-0.1734,-0.1741,-0.1769,-0.1737,-0.1767,-0.1768,-0.1764,-0.1826,-0.1836,-0.1885,-0.1805,-0.1806,-0.1807,0,-0.1599,-0.1616,-0.1664,-0.1676,-0.1686,-0.1708,-0.1728,-0.1747,-0.1761,-0.1762,-0.1776,-0.1771,-0.1799,-0.1776,-0.1815,-0.1793,-0.1805,-0.181,-0.1811,-0.1816,-0.1791,-0.1833,-0.19,-0.1908,-0.1817,-0.1816,-0.1815,0,-0.1644,-0.1679,-0.1712,-0.1721,-0.1736,-0.1751,-0.1758,-0.1771,-0.1784,-0.1801,-0.181,-0.183,-0.1842,-0.1857,-0.1858,-0.1841,-0.1897,-0.1874,-0.19,-0.19,-0.1914,-0.1913,-0.1985,-0.1919,-0.1919,-0.1919,-0.1918,0,-0.1703,-0.1733,-0.1733,-0.1753,-0.1786,-0.1783,-0.1815,-0.1821,-0.1832,-0.1853,-0.1844,-0.1864,-0.1862,-0.1883,-0.1883,-0.1915,-0.192,-0.1922,-0.1923,-0.1924,-0.1924,-0.1933,-0.1931,-0.1921,-0.192,-0.192,-0.1919,0,-0.1761,-0.1761,-0.1797,-0.1807,-0.181,-0.1834,-0.1843,-0.1863,-0.1865,-0.1892,-0.1898,-0.1902,-0.1925,-0.1927,-0.1954,-0.1954,-0.1993,-0.1989,-0.1989,-0.1988,-0.2014,-0.2012,-0.2095,-0.2106,-0.2032,-0.2033,-0.2033,0,-0.1799,-0.1822,-0.1834,-0.1847,-0.1855,-0.1877,-0.189,-0.1886,-0.19,-0.1917,-0.1934,-0.1956,-0.1974,-0.2012,-0.2017,-0.2038,-0.2035,-0.2062,-0.2038,-0.2039,-0.2036,-0.2035,-0.2038,-0.2068,-0.2069,-0.2069,-0.207,0,-0.1868,-0.1866,-0.1885,-0.1904,-0.1919,-0.1934,-0.1948,-0.1959,-0.1957,-0.1973,-0.1997,-0.201,-0.2037,-0.2059,-0.2078,-0.2086,-0.2078,-0.2077,-0.2084,-0.2087,-0.2086,-0.2088,-0.2003,-0.2076,-0.2075,-0.2075,-0.2074,-0.2074,-0.1918,-0.1937,-0.1948,-0.1969,-0.1979,-0.1991,-0.201,-0.2014,-0.2033,-0.2054,-0.205,-0.2076,-0.2088,-0.2114,-0.2122,-0.2142,-0.2133,-0.2143,-0.2146,-0.2149,-0.2152,-0.2081,-0.2146,-0.2146,-0.2145,-0.2145,-0.2145,0,-0.1986,-0.1993,-0.2012,-0.2031,-0.2047,-0.2036,-0.205,-0.2065,-0.2087,-0.2099,-0.2116,-0.2142,-0.2163,-0.2169,-0.2189,-0.2204,-0.2201,-0.221,-0.221,-0.2211,-0.2159,-0.2151,-0.2212,-0.2212,-0.2212,-0.2212,-0.2212,-0.2212,-0.2024,-0.2056,-0.2056,-0.2092,-0.2098,-0.2123,-0.2132,-0.2143,-0.2152,-0.2182,-0.2199,-0.2202,-0.2211,-0.2232,-0.2251,-0.2252,-0.226,-0.2271,-0.2271,-0.2222,-0.2215,-0.2209,-0.2202,-0.2272,-0.2272,-0.2322,-0.2322,-0.2322]}]]